Tracking 32139 objects as of 15-Nov-2025
HD Live streaming from Space Station
objects crossing your sky now

STARLINK-30704

Track STARLINK-30704 now!
10-day predictions
STARLINK-30704 is classified as:


NORAD ID: 57946
Int'l Code: 2023-148M
Perigee: 481.7 km
Apogee: 483.3 km
Inclination: 53.2 °
Period: 94.1 minutes
Semi major axis: 6853 km
RCS: Unknown
Launch date: September 25, 2023
Source: United States (US)
Launch site: AIR FORCE WESTERN TEST RANGE (AFWTR)
Your satellite tracking list
Your tracking list is empty




NASA's NSSDC Master Catalog

Two Line Element Set (TLE):
1 57946U 23148M   25318.05521266 -.00012542  00000-0 -41257-3 0  9993
2 57946  53.1599 278.5597 0001206 103.8894 256.2241 15.30158157119616
Source of the keplerian elements: AFSPC